User: anonymous   Login
Location: *
(37.5724°S, 58.0067°E)
Time: 06:36:17
(UTC+00:00)
Language:

CZ-4 R/B - Orbit

View from above orbital plane
View from above orbital plane
View from above satellite
View from above satellite

Ground track
Ground track

The orbit data is extracted from the following two-line orbital elements,

1 29507U 06046C   21134.48907490  .00001163  00000-0  94148-4 0  9992
2 29507  97.7338 160.5572 0048266 129.1350 231.4179 15.00840867795013
Epoch (UTC): 14 May 2021 11:44:16
Eccentricity: 0.0048266
inclination: 97.7338°
perigee height: 531 km
apogee height: 598 km
right ascension of ascending node: 160.5572°
argument of perigee: 129.1350°
revolutions per day: 15.00840867
mean anomaly at epoch: 231.4179°
orbit number at epoch: 79501

The dashed part of the orbit path shows where the satellite is in the earth's shadow,  

DLR